Tracking 28766 objects as of 14-Apr-2024
HD Live streaming from Space Station
objects crossing your sky now

ONEWEB-0152

Track ONEWEB-0152 now!
10-day predictions
ONEWEB-0152 is classified as:


NORAD ID: 48043
Int'l Code: 2021-025B
Perigee: 1,215.5 km
Apogee: 1,218.3 km
Inclination: 87.9 °
Period: 109.6 minutes
Semi major axis: 7587 km
RCS: Unknown
Launch date: March 25, 2021
Source: United States (US)
Launch site: VOSTOCHNY COSMODROME (VOSTO)
Your satellite tracking list
Your tracking list is empty




NASA's NSSDC Master Catalog

Two Line Element Set (TLE):
1 48043U 21025B   24104.57961058  .00000134  00000-0  33174-3 0  9990
2 48043  87.8893 118.4145 0001875  90.1762 269.9582 13.13467026149248
Source of the keplerian elements: AFSPC